DW8750 Weather Reports


time (UTC)temp
C
wind
direction
speed
KPH
gust
KPH
rain 1hr
cm
rain 24hr
cm
rain mn
cm
humidity
%
barometer
mb
20260507234449 19 171 3.2 6.4 0.00 0.00 0.00 70 1010.3
20260507233448 19 146 1.6 6.4 0.00 0.00 0.00 70 1010.5
20260507232448 19 146 1.6 8.0 0.00 0.00 0.00 70 1010.8
20260507231448 19 215 0.0 1.6 0.00 0.00 0.00 70 1011.1
20260507230447 19 215 0.0 0.0 0.00 0.00 0.00 69 1010.8
20260507225448 19 215 0.0 0.0 0.00 0.00 0.00 70 1010.4
20260507223445 19 215 1.6 4.8 0.00 0.00 0.00 69 1010.5
20260507222447 19 192 1.6 8.0 0.00 0.00 0.00 70 1010.4
20260507221446 20 205 1.6 4.8 0.00 0.00 0.00 69 1010.5
20260507215438 19 238 4.8 11.3 0.00 0.00 0.00 70 1010.8
20260507214442 19 298 9.7 14.5 0.00 0.00 0.00 72 1010.9
20260507212440 19 80 4.8 9.7 0.00 0.00 0.00 70 1010.6
20260507211436 20 128 6.4 16.1 0.00 0.00 0.00 69 1010.8
20260507210437 20 214 9.7 17.7 0.00 0.00 0.00 69 1011.1
20260507205438 20 236 8.0 22.5 0.00 0.00 0.00 69 1011.0
20260507204438 20 236 6.4 11.3 0.00 0.00 0.00 69 1010.6
20260507203437 20 211 3.2 6.4 0.00 0.00 0.00 69 1010.5
20260507202438 20 196 1.6 6.4 0.00 0.00 0.00 69 1010.4
20260507200437 20 226 4.8 16.1 0.00 0.00 0.00 68 1010.6
20260507195436 20 172 6.4 20.9 0.00 0.00 0.00 69 1010.9
20260507194436 20 225 6.4 9.7 0.00 0.00 0.00 69 1010.8
20260507192436 20 292 0.0 6.4 0.00 0.00 0.00 69 1010.4
20260507191438 20 171 0.0 3.2 0.00 0.00 0.00 69 1010.2
20260507190437 20 171 0.0 4.8 0.00 0.00 0.00 69 1010.1
20260507185434 20 179 4.8 12.9 0.00 0.00 0.00 69 1010.3
20260507184434 20 259 6.4 14.5 0.00 0.00 0.00 69 1010.2
20260507183436 20 336 6.4 17.7 0.00 0.00 0.00 67 1010.1
20260507182430 20 221 11.3 25.7 0.00 0.00 0.00 66 1009.7
20260507181430 20 163 4.8 20.9 0.00 0.00 0.00 67 1009.5
20260507180430 20 285 9.7 20.9 0.00 0.00 0.00 67 1009.7
20260507174430 20 260 8.0 14.5 0.00 0.00 0.00 66 1009.8
20260507173432 20 241 16.1 35.4 0.00 0.00 0.00 64 1010.1
20260507172431 20 234 11.3 29.0 0.00 0.00 0.00 64 1010.0
20260507171430 21 179 9.7 27.4 0.00 0.00 0.00 65 1010.3
20260507170436 21 205 9.7 20.9 0.00 0.00 0.00 65 1010.2
20260507164434 21 250 9.7 19.3 0.00 0.00 0.00 63 1010.0
20260507163430 21 311 3.2 11.3 0.00 0.00 0.00 63 1010.0
20260507162430 21 19 9.7 27.4 0.00 0.00 0.00 62 1009.9
20260507161432 21 153 17.7 46.7 0.00 0.00 0.00 63 1009.9
20260507160432 21 138 24.1 49.9 0.00 0.00 0.00 63 1009.6
20260507155430 21 181 19.3 41.8 0.00 0.00 0.00 62 1009.2
20260507154430 21 159 24.1 48.3 0.00 0.00 0.00 61 1009.7
20260507152429 21 31 22.5 40.2 0.00 0.00 0.00 60 1009.9
20260507151432 22 144 16.1 37.0 0.00 0.00 0.00 60 1009.6
20260507150430 21 148 20.9 41.8 0.00 0.00 0.00 60 1009.7
20260507145430 21 112 19.3 49.9 0.00 0.00 0.00 59 1009.3
20260507144432 21 69 22.5 43.5 0.00 0.00 0.00 58 1009.4
20260507143432 21 153 24.1 46.7 0.00 0.00 0.00 59 1009.5
20260507142430 21 142 29.0 59.5 0.00 0.00 0.00 59 1009.1
20260507141430 21 100 25.7 62.8 0.00 0.00 0.00 59 1009.3
20260507140430 21 126 24.1 46.7 0.00 0.00 0.00 58 1009.5
20260507135430 21 138 30.6 53.1 0.00 0.00 0.00 58 1009.7
20260507133430 22 148 24.1 49.9 0.00 0.00 0.00 56 1009.8
20260507131430 22 159 20.9 61.2 0.00 0.00 0.00 53 1010.2
20260507124429 22 317 25.7 49.9 0.00 0.00 0.00 52 1010.6
20260507123431 22 148 30.6 62.8 0.00 0.00 0.00 52 1010.4
20260507122430 22 188 27.4 77.2 0.00 0.00 0.00 51 1010.4
20260507121432 22 163 22.5 37.0 0.00 0.00 0.00 49 1010.5
20260507120434 22 159 24.1 61.2 0.00 0.00 0.00 48 1010.5
20260507115430 23 105 16.1 40.2 0.00 0.00 0.00 46 1010.6
20260507113431 23 145 16.1 33.8 0.00 0.00 0.00 41 1010.9
20260507112427 23 138 20.9 49.9 0.00 0.00 0.00 39 1010.9
20260507110429 25 146 6.4 29.0 0.00 0.00 0.00 35 1011.0
20260507105431 25 175 4.8 16.1 0.00 0.00 0.00 34 1011.0
20260507103427 24 151 8.0 24.1 0.00 0.00 0.00 32 1011.2
20260507102427 23 123 9.7 24.1 0.00 0.00 0.00 32 1011.2
20260507101428 24 127 9.7 24.1 0.00 0.00 0.00 32 1011.1
20260507100429 24 216 9.7 24.1 0.00 0.00 0.00 32 1011.3
20260507094429 23 159 20.9 40.2 0.00 0.00 0.00 31 1012.0
20260507093427 23 186 16.1 49.9 0.00 0.00 0.00 32 1011.8
20260507092427 23 209 17.7 57.9 0.00 0.00 0.00 33 1011.8
20260507091434 23 182 9.7 27.4 0.00 0.00 0.00 36 1011.7
20260507090643 23 167 9.7 27.4 0.00 0.00 0.00 36 1011.7
20260507085428 23 205 14.5 27.4 0.00 0.00 0.00 38 1011.8
20260507084427 23 175 14.5 32.2 0.00 0.00 0.00 39 1012.1
20260507083427 22 167 14.5 37.0 0.00 0.00 0.00 41 1012.0
20260507082427 22 198 9.7 30.6 0.00 0.00 0.00 43 1012.0
20260507080428 22 184 9.7 20.9 0.00 0.00 0.00 44 1012.0
20260507074429 22 137 6.4 16.1 0.00 0.00 0.00 47 1012.4
20260507073428 21 130 3.2 11.3 0.00 0.00 0.00 50 1012.7
20260507072429 21 83 1.6 4.8 0.00 0.00 0.00 51 1012.8
20260507070427 20 107 1.6 6.4 0.00 0.00 0.00 52 1012.9
20260507065424 20 128 8.0 16.1 0.00 0.00 0.00 52 1012.9
20260507064425 20 117 8.0 16.1 0.00 0.00 0.00 52 1012.9
20260507063425 20 130 6.4 19.3 0.00 0.00 0.00 54 1012.9
20260507062423 20 135 6.4 12.9 0.00 0.00 0.00 54 1013.1
20260507061423 20 121 12.9 22.5 0.00 0.00 0.00 53 1013.0
20260507060423 19 139 8.0 19.3 0.00 0.00 0.00 52 1012.9
20260507054423 19 279 3.2 9.7 0.00 0.00 0.00 47 1013.0
20260507052425 19 53 3.2 6.4 0.00 0.00 0.00 43 1012.9
20260507051425 20 267 0.0 3.2 0.00 0.00 0.00 41 1013.0
20260507050421 20 267 1.6 4.8 0.00 0.00 0.00 41 1013.0
20260507045422 20 101 11.3 19.3 0.00 0.00 0.00 39 1012.9
20260507044421 20 138 11.3 17.7 0.00 0.00 0.00 37 1012.9
20260507043420 20 140 14.5 22.5 0.00 0.00 0.00 36 1012.9
20260507042423 20 108 11.3 19.3 0.00 0.00 0.00 37 1012.7
20260507041423 18 181 4.8 14.5 0.00 0.00 0.00 44 1013.0
20260507040421 19 186 3.2 8.0 0.00 0.00 0.00 45 1013.0
20260507035421 20 301 3.2 12.9 0.00 0.00 0.00 45 1013.0
20260507033421 19 126 8.0 17.7 0.00 0.00 0.00 41 1013.0
20260507032414 18 118 9.7 16.1 0.00 0.00 0.00 44 1012.8
20260507031414 18 126 8.0 16.1 0.00 0.00 0.00 48 1012.9
20260507030414 18 88 4.8 12.9 0.00 0.00 0.00 51 1013.0
20260507025414 18 149 8.0 16.1 0.00 0.00 0.00 50 1013.0
20260507024416 18 157 4.8 11.3 0.00 0.00 0.00 49 1013.0
20260507023414 19 192 3.2 6.4 0.00 0.00 0.00 48 1013.2
20260507022414 19 315 1.6 6.4 0.00 0.00 0.00 47 1013.0
20260507021421 19 324 1.6 4.8 0.00 0.00 0.00 46 1013.1
20260507020418 19 324 6.4 9.7 0.00 0.00 0.00 46 1013.0
20260507014419 19 86 1.6 4.8 0.00 0.00 0.00 48 1013.0
20260507012411 20 128 3.2 6.4 0.00 0.00 0.00 46 1012.8
20260507011412 20 329 3.2 8.0 0.00 0.00 0.00 45 1012.9
20260507010412 19 344 4.8 9.7 0.00 0.00 0.00 47 1013.1
20260507004408 19 5 1.6 4.8 0.00 0.00 0.00 50 1012.9
20260507003408 19 5 1.6 3.2 0.00 0.00 0.00 47 1012.9
20260507002414 19 59 4.8 8.0 0.00 0.00 0.00 47 1013.0
20260507001407 20 344 6.4 8.0 0.00 0.00 0.00 47 1012.9
20260507000408 20 340 3.2 8.0 0.00 0.00 0.00 45 1013.2